#timestamp,LO_Frequency,Hit,StdDev 
1514232015.8,286047004.1,N
1514232035.7,286047004.4,N
1514232055.5,286047002.7,N
1514232075.4,286046999.3,N
1514232095.2,286046998.1,N
1514232115.0,286047002.6,N
1514232115.9,286047002.6,N
1514232135.8,286047004.0,N
1514232155.6,286047003.2,N
1514232175.4,286047001.6,N
1514232195.3,286047001.4,N
1514232215.1,286047004.4,N
1514232235.9,286047001.4,N
1514232255.7,286046999.8,N
1514232275.5,286047000.1,N
1514232295.4,286047000.5,N
1514232315.2,286047000.2,N
1514232335.1,286046999.9,N
1514232336.0,286046999.9,N
1514232355.8,286047001.1,N
1514232375.6,286047002.8,N
1514232395.5,286047003.4,N
1514232415.3,286047003.2,N
1514232435.1,286047003.9,N
1514232455.9,286047002.0,N
1514232475.7,286047001.5,N
1514232495.6,286047002.1,N
1514232515.4,286047002.7,N
1514232535.2,286047001.1,N
1514232555.1,286047000.6,N
1514232556.0,286047000.6,N
1514232575.8,286047002.5,N
1514232595.7,286047000.4,N
1514232615.5,286047001.9,N
1514232635.3,286047003.5,N
1514232655.2,286047001.5,N
1514232675.0,286047004.1,Y
1514232675.9,286047004.1,P
1514232695.8,286047002.8,N
1514232715.6,286046998.9,N
1514232735.4,286046999.0,N
1514232755.3,286046998.9,N
1514232775.1,286046998.8,N
1514232795.8,286046999.2,N
1514232815.7,286046999.2,N
1514232835.5,286046997.0,N
1514232855.4,286046996.7,N
1514232875.2,286047000.0,N
1514232895.0,286047000.5,N
1514232895.9,286047000.5,N
1514232915.8,286046998.5,N
1514232935.6,286047002.7,N
1514232955.5,286047000.5,N
1514232975.3,286046998.1,N
1514232995.1,286047000.5,N
1514233015.9,286046999.7,N
1514233035.7,286047000.3,N
1514233055.5,286047000.4,N
1514233075.4,286046999.4,N
1514233095.2,286046995.1,N
1514233115.1,286046994.7,N
1514233116.0,286046994.7,N
1514233135.8,286046994.6,N
1514233155.6,286046995.4,N
1514233175.5,286046997.4,N
1514233195.3,286046999.2,N
1514233215.1,286046996.7,N
1514233235.9,286046996.6,N
1514233255.7,286046996.6,N
1514233275.6,286046997.0,N
1514233295.4,286046996.9,N
1514233315.2,286046998.3,N
1514233335.1,286047001.5,N
1514233336.0,286047001.5,N
1514233355.8,286047004.4,N
1514233375.7,286047001.8,N
1514233395.5,286047001.5,N
1514233415.3,286047004.4,N
1514233435.2,286047001.6,N
1514233455.9,286047002.8,N
1514233475.7,286047000.7,N
1514233495.6,286046998.1,N
1514233515.4,286046999.2,N
1514233535.3,286046998.3,N
1514233555.1,286046996.5,N
1514233556.0,286046996.5,N
1514233575.8,286046997.3,N
1514233595.7,286046999.5,N
1514233615.5,286047001.2,N
1514233635.3,286046999.9,N
1514233655.2,286047001.7,N
1514233675.0,286047001.4,N
1514233675.9,286047001.4,N
1514233695.8,286047001.1,N
1514233715.6,286046998.6,N
1514233735.4,286047001.1,N
1514233755.3,286046998.1,N
1514233775.1,286047001.9,N
1514233795.9,286047001.8,N
1514233815.7,286047000.6,N
1514233835.5,286047002.7,N
1514233855.4,286047001.0,N
1514233875.2,286047002.1,N
1514233895.1,286046999.8,N
1514233896.0,286046999.8,N
1514233915.8,286047000.3,N
1514233935.6,286047002.7,N
1514233955.5,286047002.7,N
1514233975.3,286047002.5,N
1514233995.1,286047001.4,N
1514234015.9,286047002.5,N
1514234035.7,286046998.2,N
1514234055.6,286046998.8,N
1514234075.4,286046999.2,N
1514234095.2,286046999.6,N
1514234115.1,286046999.4,N
1514234116.0,286046999.4,N
1514234135.8,286047000.0,N
1514234155.7,286046998.1,N
1514234175.5,286046999.5,N
1514234195.3,286046999.6,N
1514234215.2,286046999.5,N
1514234235.0,286046997.0,N
1514234235.9,286046997.0,N
1514234255.8,286046997.7,N
1514234275.6,286046999.5,N
1514234295.4,286047000.4,N
1514234315.3,286047002.5,N
1514234335.1,286046998.5,N
1514234355.8,286047000.8,N
1514234375.7,286047002.7,N
1514234395.5,286046999.9,N
1514234415.4,286046998.6,N
1514234435.2,286046998.1,N
1514234455.0,286046996.9,N
1514234455.9,286046996.9,N
1514234475.8,286046998.0,N
1514234495.6,286046995.6,N
1514234515.5,286046997.5,N
1514234535.3,286046997.1,N
1514234555.1,286046996.9,N
1514234575.9,286047001.2,N
1514234595.7,286046999.9,N
1514234615.6,286047000.8,N
1514234635.4,286047000.2,N
1514234655.2,286046999.7,N
1514234675.1,286046998.3,N
1514234676.0,286046998.3,N
1514234695.8,286047000.1,N
1514234715.6,286046999.9,N
1514234735.5,286047002.8,N
1514234755.3,286046999.9,N
1514234775.2,286047001.0,N
1514234795.9,286046998.2,N
1514234815.7,286046998.4,N
1514234835.6,286046998.3,N
1514234855.4,286046996.7,N
1514234875.3,286046999.5,N
1514234895.1,286046996.8,N
1514234896.0,286046996.8,N
1514234915.8,286046995.0,N
1514234935.7,286046995.1,N
1514234955.5,286046996.7,N
1514234975.3,286046998.7,N
1514234995.2,286047002.5,N
1514235015.0,286047001.1,N
1514235015.9,286047001.1,N
1514235035.8,286046999.2,N
1514235055.6,286046999.6,N
1514235075.4,286046999.1,N
1514235095.3,286046996.6,N
1514235115.1,286046997.1,N
1514235135.9,286046996.8,N
1514235155.7,286046999.1,N
1514235175.5,286046998.1,N
1514235195.4,286046998.9,N
1514235215.2,286046999.0,N
1514235235.1,286047000.5,N
1514235236.0,286047000.5,N
1514235255.8,286046998.4,N
1514235275.6,286046998.7,N
1514235295.5,286047001.0,N
1514235315.3,286046999.1,N
1514235335.1,286046996.6,N
1514235355.9,286046999.6,N
1514235375.7,286047001.1,N
1514235395.6,286046998.6,N
1514235415.4,286047000.1,N
1514235435.2,286047002.5,N
1514235455.1,286047000.3,N
1514235456.0,286047000.3,N
1514235475.8,286046999.0,N
1514235495.7,286047000.8,N
1514235515.5,286047000.5,N
1514235535.3,286046998.5,N
1514235555.2,286046998.6,N
1514235575.9,286046999.0,N
1514235595.7,286046998.2,N
